カタログに戻る

STARLINK-30289

運用中通信VLEO
NORAD 57653·PAYLOAD·🇺🇸 United States

打ち上げ Aug 17, 2023 から Cape Canaveral Space Force Station

Loading…

次のパス (今後24時間)

TLE

最新Source: CelesTrak SupGP

元期: Sep 14, 2026, 21:38 UTC

1 57653C 23122X   26257.90187500  .00030168  00000+0  10929-2 0  2575
2 57653  43.0029  93.2814 0001395 265.7145 311.5213 15.27558203    16

AllMySatでSTARLINK-30289をリアルタイム追跡

Download on the App Store